Temp
71 69 68 68 69 69 69 69 69 69 68 68 66 66 66 64 59 57 58 58 61 64 68 69 66 66 67 69 69 70 70 73 75 72 72 70 68 71 71 71 72 72 72 71 71 71 71 72 72 72 72 73 73 73 73 73 73 73 73 73 73 72 72 71 71 71 71 71 71 71 71 72 73 73
69 70 69 69 69 70 69 68 69 68 68 67 67 66 66 66 64 60 59 58 61 62 63 68 66 67 68 68 69 69 69 73 75 70 70 70 69 71 71 71 71 71 71 70 70 70 70 70 71 71 72 72 72 72 72 72 72 72 72 72 72 72 72 71 70 70 70 70 70 70 71 71 71 71
70 69 69 68 68 69 69 69 69 69 68 67 67 67 66 66 65 63 61 58 60 65 64 63 67 70 67 68 69 69 70 72 74 72 70 70 72 73 71 71 70 70 70 70 70 70 69 69 69 70 71 71 72 72 72 72 72 72 72 72 72 71 71 71 70 71 70 70 70 70 70 70 70 70
70 69 69 68 69 68 68 69 68 67 69 69 67 67 66 65 65 65 62 62 62 63 64 62 65 67 67 66 67 66 69 71 75 70 70 70 73 72 71 72 71 70 69 69 69 69 68 68 68 69 70 70 71 72 72 72 72 71 71 71 71 71 71 70 70 70 70 70 70 70 70 70 70 70
70 69 69 69 68 68 68 68 68 68 68 67 67 68 65 65 64 65 64 62 62 63 63 65 67 67 68 67 67 68 67 68 70 72 70 70 69 69 69 70 71 70 69 69 68 68 68 68 68 69 69 70 70 71 71 71 70 70 70 70 69 69 70 69 70 70 70 70 70 70 70 70 70 71
70 70 68 68 68 66 68 67 68 68 67 68 66 66 67 65 66 67 65 63 61 62 62 64 65 66 67 68 65 68 68 68 68 69 69 70 69 70 70 70 70 71 71 70 69 68 68 68 68 68 69 69 70 70 70 69 68 69 70 69 69 68 68 68 68 69 69 70 70 69 70 70 70 71
70 69 69 69 68 68 67 66 68 67 67 68 67 67 67 66 66 66 66 64 62 61 62 63 64 65 66 67 68 67 68 68 68 67 68 70 70 71 70 70 71 71 71 70 70 69 69 68 67 67 67 67 68 68 67 67 67 67 67 66 67 67 67 67 67 67 68 68 69 69 69 69 69 70
70 69 68 68 68 67 67 67 67 66 66 67 67 67 68 67 66 65 66 65 65 63 63 62 65 65 65 66 67 68 68 67 68 68 68 67 68 69 70 70 70 71 70 70 69 69 68 67 67 67 67 66 65 65 64 65 65 64 65 65 65 65 65 65 64 65 66 66 66 68 68 69 69 69
70 70 69 68 67 66 67 67 67 66 66 66 66 67 68 67 66 67 66 65 65 64 63 63 65 66 67 67 67 67 67 66 66 66 66 67 67 67 68 69 70 71 70 70 69 69 68 68 68 68 67 66 66 65 65 65 64 64 63 62 62 63 64 64 64 64 64 64 64 65 66 67 67 67
70 69 68 68 67 67 67 67 67 67 67 67 67 67 68 68 66 65 65 65 64 64 63 63 64 62 66 65 66 67 66 65 65 65 65 64 64 65 66 68 70 70 71 70 70 69 68 68 68 67 67 66 65 65 64 64 64 63 62 60 61 62 61 61 61 62 62 62 62 62 64 65 66 67
71 70 68 68 67 67 68 68 68 68 68 69 68 69 69 68 67 66 65 65 64 64 64 63 63 63 63 65 64 65 66 66 65 65 64 64 65 65 65 66 68 69 70 69 69 69 70 70 69 66 65 65 65 64 64 63 63 63 62 60 59 59 59 60 60 59 60 61 61 61 61 61 62 64
71 70 69 69 68 68 69 70 70 70 69 69 69 69 68 68 66 65 65 64 63 62 63 62 63 61 61 63 65 66 64 63 62 63 64 62 62 64 63 64 65 66 67 67 68 69 69 69 68 67 66 67 66 64 64 66 67 66 63 61 63 62 60 59 59 59 59 59 59 60 61 61 61 62
69 69 70 70 70 70 72 73 72 72 72 69 68 67 67 66 66 65 63 64 62 62 61 61 62 61 62 63 63 62 61 62 63 62 62 62 62 62 63 64 65 66 65 65 66 66 67 66 66 65 65 66 68 68 68 69 69 67 64 63 63 63 62 61 60 60 59 59 59 59 60 60 60 60
68 70 71 71 73 73 75 75 74 72 72 72 71 68 67 67 65 64 63 62 62 62 60 61 61 61 61 63 64 63 63 64 63 62 61 61 61 59 61 62 64 66 65 64 63 63 65 65 64 63 63 65 67 66 66 66 68 66 65 65 64 64 63 62 61 60 60 59 59 58 58 58 59 59
68 69 70 69 73 73 74 73 73 72 71 70 70 69 69 69 67 64 62 62 62 61 62 62 62 62 62 64 64 64 65 64 64 64 63 62 60 59 58 58 62 65 64 60 58 61 63 61 60 61 61 63 64 64 64 66 66 64 64 64 64 64 64 64 63 61 60 59 60 59 58 58 58 58
68 67 68 69 71 71 71 70 70 70 69 68 68 68 67 67 69 69 67 65 62 62 62 63 64 64 63 64 63 64 64 64 63 63 62 61 61 59 57 57 57 61 63 60 58 58 62 61 61 59 61 63 64 65 65 65 64 63 63 63 63 62 63 63 63 62 61 61 61 61 61 60 60 59
66 67 68 69 70 70 74 71 68 68 68 67 66 67 68 67 66 65 65 66 68 67 64 64 64 64 64 62 63 65 64 64 63 61 59 59 59 59 57 57 58 61 62 59 57 56 60 60 61 59 62 63 64 65 65 64 64 63 63 63 62 62 62 62 62 62 62 61 60 59 59 60 60 60
67 68 69 68 68 69 70 68 67 67 67 66 65 65 65 65 67 66 64 63 63 64 65 63 63 65 65 64 64 66 66 63 62 59 59 59 57 57 58 59 59 61 62 59 56 55 58 60 59 58 61 63 63 63 63 63 63 62 62 61 61 60 60 61 61 61 61 61 61 60 59 58 57 58
69 70 70 69 68 67 67 67 68 67 66 66 65 64 64 65 65 65 65 65 64 64 64 64 64 65 66 65 65 65 65 64 64 63 62 60 59 58 56 56 57 59 61 58 56 52 57 59 59 59 61 62 61 61 62 62 62 62 62 61 61 61 61 62 62 61 60 60 60 59 58 57 57 57
69 69 69 68 67 67 67 67 67 68 67 65 64 63 63 63 63 63 66 64 66 67 66 65 65 65 66 65 65 65 65 63 61 62 60 58 57 56 54 54 56 57 59 59 56 55 55 57 58 58 59 60 59 60 61 62 62 62 61 62 62 61 60 61 61 61 61 61 60 60 59 57 56 56
68 69 70 68 67 66 66 65 62 64 70 63 62 61 61 62 62 63 65 64 62 62 61 60 61 61 59 59 58 57 59 61 60 59 57 56 56 55 52 54 54 55 57 57 58 56 55 55 55 56 56 58 58 59 59 59 61 62 62 61 61 60 59 59 60 60 60 60 60 60 59 58 57 58
67 69 72 70 66 66 66 63 61 61 66 63 62 61 61 61 61 62 64 66 65 63 61 60 60 59 59 59 58 58 57 57 59 59 56 57 57 54 54 52 54 55 57 58 60 56 53 55 53 54 56 55 55 56 56 58 60 61 60 60 60 59 59 58 58 59 59 60 60 59 58 57 58 60
67 68 70 70 68 67 66 60 60 60 64 63 62 61 59 61 60 62 60 60 60 58 59 58 61 61 62 61 60 63 62 60 61 58 58 57 56 53 54 54 53 53 52 57 60 56 52 54 54 53 54 52 51 56 58 59 59 59 60 61 62 60 60 58 57 57 58 58 58 58 57 57 57 60
66 67 67 68 63 62 60 57 55 55 59 63 62 60 61 60 61 59 56 60 60 57 57 57 58 58 58 58 58 58 59 62 64 59 57 57 56 56 54 55 54 53 52 51 58 55 52 53 53 52 54 50 47 51 57 58 59 60 60 60 60 62 63 62 60 59 57 57 57 57 57 56 56 59
65 65 65 66 61 57 56 55 53 52 54 60 61 61 61 62 59 56 55 58 65 57 58 58 58 59 57 56 57 58 57 60 60 59 59 59 56 57 55 53 53 54 55 59 62 55 52 50 53 51 53 51 52 53 54 57 60 59 61 60 60 62 62 62 61 62 60 59 57 56 55 55 56 57
65 64 65 65 62 56 55 54 51 50 52 57 61 61 57 56 54 57 57 56 57 56 56 55 56 57 55 55 56 58 58 59 61 60 59 59 58 58 58 56 54 51 53 57 59 55 52 52 54 54 53 51 54 55 54 55 59 60 60 60 60 61 61 61 61 61 61 62 62 59 60 58 58 57
64 64 64 65 60 55 52 51 50 51 52 56 58 55 52 52 53 57 55 55 56 54 54 55 55 54 54 56 54 55 56 55 55 57 56 57 56 57 59 58 56 56 57 58 60 58 55 51 54 54 54 54 52 53 53 51 55 59 59 59 60 61 61 61 60 60 61 61 61 60 57 57 56 56
63 63 63 62 55 51 48 48 50 51 53 57 52 51 51 52 54 56 54 54 53 55 54 53 53 53 53 53 53 55 58 57 54 56 55 55 55 55 57 57 59 58 58 57 58 57 55 54 55 56 54 52 50 49 49 55 57 57 57 60 60 61 61 60 58 59 60 60 60 59 59 59 61 61
63 59 55 52 51 50 47 48 50 51 51 51 52 50 51 55 55 54 52 52 52 51 52 53 54 54 55 55 56 57 54 55 55 55 57 56 55 55 55 55 56 57 59 60 58 57 56 55 54 55 54 53 50 52 53 53 56 57 59 58 57 59 60 61 60 59 59 59 59 59 59 59 59 61
56 53 51 51 51 51 52 54 56 57 57 53 53 52 52 54 53 52 52 52 53 52 52 54 54 54 55 55 56 55 55 53 54 54 55 54 55 55 54 53 54 55 57 57 58 57 56 56 55 54 53 54 55 54 55 55 55 57 58 57 58 60 59 58 57 57 58 58 59 59 60 60 60 60
55 54 55 55 54 54 54 56 57 57 57 54 52 52 53 53 52 52 52 52 53 53 53 53 53 52 54 55 55 54 54 54 54 53 56 53 52 56 53 51 52 53 56 56 58 58 57 57 56 54 53 54 56 56 56 56 54 54 56 57 57 53 57 59 58 58 58 59 59 60 59 59 59 60
57 57 55 54 56 55 54 53 54 53 55 55 53 52 52 53 54 56 58 59 54 53 53 53 53 54 55 53 53 53 53 52 53 53 53 54 53 54 52 50 51 52 52 54 56 58 60 58 56 56 56 56 54 56 56 55 54 54 55 57 58 57 58 57 57 58 59 58 57 56 56 56 56 58
57 56 55 55 54 54 54 54 53 53 53 55 55 55 53 53 53 53 53 54 54 54 53 53 54 54 53 52 53 52 52 52 52 51 52 52 51 53 50 50 50 50 50 52 54 55 55 56 57 57 56 56 56 55 53 52 54 56 55 56 56 56 57 58 57 57 58 56 54 55 54 56 56 57
55 55 55 55 55 54 54 54 54 54 54 54 54 54 56 55 54 54 54 54 54 54 54 54 52 51 51 50 50 50 51 52 52 51 53 50 50 50 49 48 49 50 51 50 52 53 54 55 55 56 56 56 57 56 55 53 53 55 56 55 54 54 56 57 57 57 56 54 53 52 52 54 56 57
56 55 55 55 55 55 55 54 55 56 55 55 54 55 54 54 55 55 54 54 54 54 54 52 51 51 51 50 50 50 51 52 50 49 51 51 51 49 49 48 49 49 50 51 52 53 52 53 52 52 53 53 54 55 58 58 54 54 54 54 54 54 55 57 57 56 55 54 52 50 51 53 54 56
56 56 56 55 55 55 55 56 57 56 56 55 56 55 55 55 55 55 55 53 53 52 52 52 52 51 50 49 49 49 49 51 49 49 49 49 49 50 48 51 50 50 49 50 51 52 51 52 50 50 48 49 48 49 54 61 59 55 54 53 54 54 55 55 56 55 53 52 52 50 49 49 51 54
57 56 57 57 56 56 57 57 56 56 56 56 57 55 55 56 56 55 55 52 53 54 53 53 51 50 50 50 50 50 50 50 48 49 50 47 48 48 47 48 51 50 49 51 51 52 51 49 50 48 47 47 47 48 52 57 57 57 55 53 53 54 54 54 53 52 53 52 51 51 50 50 50 52
57 57 57 57 57 56 57 57 57 58 55 56 56 54 54 53 54 55 54 55 54 53 52 50 52 51 49 49 49 48 47 48 49 48 48 47 47 47 47 47 48 49 49 50 51 51 50 49 49 49 48 46 46 47 50 55 55 55 55 54 53 54 55 52 50 50 50 52 51 52 52 50 50 52
58 57 57 56 56 56 57 56 56 55 55 55 54 55 54 54 54 54 54 53 53 52 50 49 48 49 49 47 49 50 49 47 46 47 47 47 47 46 47 48 48 50 47 49 50 50 50 48 50 49 49 47 47 48 50 50 52 56 56 54 53 52 52 50 49 50 50 50 51 53 53 54 55 56
58 57 57 57 56 55 56 57 54 54 55 54 54 53 55 54 53 53 52 52 51 51 49 49 49 48 46 47 49 47 48 47 47 45 47 47 48 49 49 50 48 48 46 48 49 50 49 51 52 51 50 50 52 53 53 54 54 54 54 54 51 52 52 51 49 48 49 50 51 49 48 50 48 50
57 57 57 55 55 56 56 54 54 53 53 54 54 54 53 53 52 50 50 50 52 48 48 47 46 47 47 47 47 49 48 46 45 47 49 48 49 50 51 51 47 47 47 47 48 49 51 53 57 60 59 55 54 53 51 50 49 51 52 53 53 53 52 53 51 50 49 50 49 48 47 46 46 47
57 58 55 55 57 56 55 54 52 54 54 53 54 53 52 52 51 55 53 55 49 49 47 47 46 48 48 47 46 47 46 47 47 47 49 47 46 48 49 48 46 47 46 47 48 50 53 54 56 55 53 52 53 50 49 49 48 50 51 52 54 54 53 53 54 54 52 49 48 46 45 45 46 45
57 57 56 56 56 55 54 55 54 55 54 52 52 53 52 52 51 51 48 49 48 48 47 47 46 46 46 45 44 45 47 49 48 47 47 47 47 46 46 47 47 47 47 48 49 51 52 53 52 52 51 49 50 52 49 50 50 49 50 51 52 53 53 54 54 54 54 55 54 51 48 45 43 41
57 57 56 56 55 54 54 55 54 54 54 53 53 52 52 51 51 49 48 47 46 46 46 46 46 46 44 45 46 46 48 49 48 47 47 47 47 46 47 47 48 48 48 48 49 51 52 52 52 50 49 49 49 49 50 50 49 50 50 50 51 50 49 51 52 53 53 54 53 53 53 52 51 50
57 56 55 54 54 54 54 54 54 53 53 52 52 51 51 52 50 49 47 46 46 46 48 46 46 46 45 46 45 48 48 51 49 47 47 47 47 47 48 48 47 47 48 47 46 49 50 50 51 51 48 51 50 49 52 52 51 51 50 49 48 48 48 50 49 48 48 48 51 53 52 52 51 51
MSLP
1017.64 1017.76 1017.88 1017.92 1017.84 1017.80 1017.76 1017.80 1017.92 1017.96 1018.08 1018.20 1018.32 1018.48 1018.96 1019.44 1020.28 1021.04 1021.12 1020.76 1020.52 1019.80 1019.44 1019.80 1019.00 1018.68 1018.64 1018.60 1018.48 1018.60 1018.64 1018.52 1018.48 1018.60 1018.64 1018.72 1018.76 1018.72 1018.68 1018.68 1018.72 1018.72 1018.76 1018.80 1018.80 1018.76 1018.72 1018.72 1018.68 1018.68 1018.64 1018.64 1018.60 1018.64 1018.68 1018.72 1018.76 1018.76 1018.76 1018.76 1018.76 1018.80 1018.84 1018.92 1018.96 1018.96 1018.96 1018.92 1018.88 1018.80 1018.80 1018.76 1018.68 1018.56
1017.52 1017.60 1017.72 1017.76 1017.84 1017.64 1017.72 1017.92 1017.96 1017.96 1018.00 1018.16 1018.24 1018.36 1018.48 1018.72 1019.48 1019.96 1020.56 1020.36 1020.00 1019.84 1019.44 1019.24 1019.28 1018.72 1018.64 1018.52 1018.48 1018.48 1018.52 1018.40 1018.40 1018.52 1018.52 1018.52 1018.48 1018.40 1018.40 1018.40 1018.44 1018.48 1018.48 1018.52 1018.56 1018.56 1018.56 1018.56 1018.48 1018.44 1018.36 1018.36 1018.32 1018.32 1018.40 1018.44 1018.48 1018.52 1018.52 1018.52 1018.48 1018.48 1018.52 1018.60 1018.64 1018.68 1018.68 1018.64 1018.60 1018.60 1018.56 1018.52 1018.48 1018.44
1017.40 1017.52 1017.64 1017.64 1017.68 1017.60 1017.68 1017.72 1017.92 1017.96 1018.08 1018.08 1018.20 1018.32 1018.52 1018.72 1018.84 1019.36 1019.76 1020.52 1019.72 1019.40 1019.64 1019.16 1018.76 1018.76 1018.64 1018.60 1018.56 1018.52 1018.48 1018.36 1018.28 1018.36 1018.40 1018.36 1018.24 1018.16 1018.20 1018.24 1018.24 1018.28 1018.24 1018.24 1018.24 1018.28 1018.28 1018.32 1018.28 1018.24 1018.20 1018.12 1018.08 1018.08 1018.08 1018.12 1018.16 1018.20 1018.24 1018.24 1018.20 1018.20 1018.20 1018.24 1018.28 1018.32 1018.32 1018.32 1018.32 1018.32 1018.32 1018.28 1018.28 1018.24
1017.12 1017.28 1017.44 1017.48 1017.56 1017.56 1017.64 1017.80 1017.88 1018.00 1018.04 1018.04 1018.24 1018.44 1018.60 1018.68 1018.76 1018.96 1019.52 1020.04 1019.92 1019.28 1019.20 1019.04 1018.76 1018.64 1018.72 1018.64 1018.76 1018.72 1018.56 1018.28 1018.16 1018.20 1018.20 1018.16 1018.16 1018.24 1018.20 1018.08 1018.08 1018.08 1018.08 1018.04 1018.04 1018.00 1017.96 1018.00 1018.00 1018.04 1018.04 1018.00 1017.92 1017.84 1017.80 1017.80 1017.84 1017.88 1017.92 1017.92 1017.92 1017.92 1017.92 1017.92 1017.92 1017.96 1017.96 1018.00 1017.96 1017.96 1017.96 1018.00 1018.00 1018.00
1016.80 1016.96 1017.16 1017.24 1017.32 1017.40 1017.64 1017.72 1017.72 1017.88 1018.00 1018.16 1018.32 1018.44 1018.64 1018.80 1018.88 1019.00 1019.44 1019.92 1019.96 1019.40 1018.92 1018.96 1018.84 1018.44 1018.48 1018.64 1018.36 1018.52 1018.48 1018.40 1018.24 1018.12 1018.04 1018.00 1018.08 1018.08 1018.04 1017.92 1017.80 1017.76 1017.76 1017.76 1017.72 1017.68 1017.68 1017.68 1017.68 1017.72 1017.76 1017.72 1017.68 1017.64 1017.60 1017.56 1017.52 1017.52 1017.52 1017.52 1017.52 1017.60 1017.60 1017.60 1017.60 1017.60 1017.56 1017.60 1017.60 1017.60 1017.68 1017.68 1017.68 1017.68
1016.52 1016.72 1017.04 1017.20 1017.20 1017.32 1017.48 1017.56 1017.68 1017.76 1018.00 1018.20 1018.36 1018.48 1018.56 1018.72 1018.80 1018.68 1019.04 1019.52 1019.76 1019.76 1019.16 1019.00 1018.68 1018.68 1018.36 1018.80 1018.20 1018.44 1018.44 1018.36 1018.20 1018.24 1018.12 1017.96 1017.92 1017.88 1017.76 1017.72 1017.60 1017.48 1017.44 1017.40 1017.44 1017.48 1017.44 1017.40 1017.40 1017.40 1017.40 1017.36 1017.32 1017.28 1017.24 1017.24 1017.20 1017.16 1017.12 1017.12 1017.12 1017.12 1017.20 1017.24 1017.24 1017.24 1017.24 1017.24 1017.24 1017.24 1017.24 1017.28 1017.32 1017.32
1016.32 1016.72 1016.92 1017.04 1017.12 1017.24 1017.52 1017.60 1017.64 1017.76 1017.92 1018.00 1018.12 1018.28 1018.36 1018.52 1018.56 1018.60 1018.60 1019.08 1019.64 1019.76 1019.48 1018.96 1019.00 1018.76 1018.48 1018.52 1018.24 1018.00 1018.00 1017.96 1018.04 1018.20 1018.08 1017.96 1017.84 1017.76 1017.64 1017.56 1017.36 1017.20 1017.16 1017.16 1017.12 1017.04 1017.04 1017.12 1017.24 1017.24 1017.16 1017.08 1017.00 1016.92 1016.88 1016.84 1016.80 1016.80 1016.80 1016.80 1016.80 1016.80 1016.80 1016.80 1016.80 1016.80 1016.80 1016.84 1016.88 1016.92 1016.88 1016.88 1016.92 1016.92
1016.24 1016.48 1016.76 1016.88 1017.04 1017.20 1017.48 1017.56 1017.68 1017.72 1017.76 1017.92 1018.08 1018.20 1018.24 1018.24 1018.36 1018.44 1018.60 1018.64 1018.92 1019.24 1019.56 1019.08 1018.84 1018.48 1018.48 1018.28 1018.00 1017.92 1017.84 1017.92 1017.92 1017.92 1017.84 1017.76 1017.88 1017.72 1017.52 1017.44 1017.32 1017.12 1017.04 1016.96 1016.88 1016.80 1016.76 1016.76 1016.72 1016.68 1016.64 1016.60 1016.60 1016.60 1016.60 1016.56 1016.56 1016.56 1016.56 1016.56 1016.56 1016.56 1016.52 1016.48 1016.44 1016.44 1016.40 1016.44 1016.52 1016.56 1016.56 1016.56 1016.52 1016.52
1016.04 1016.24 1016.44 1016.64 1016.88 1017.12 1017.40 1017.52 1017.64 1017.68 1017.76 1017.80 1017.96 1018.08 1018.08 1018.12 1018.12 1018.24 1018.44 1018.56 1018.64 1019.00 1019.24 1019.04 1018.60 1018.32 1018.28 1018.12 1018.04 1017.92 1018.12 1018.04 1018.00 1017.88 1017.92 1017.80 1017.68 1017.60 1017.44 1017.36 1017.16 1017.00 1016.92 1016.88 1016.80 1016.72 1016.64 1016.56 1016.52 1016.48 1016.40 1016.32 1016.32 1016.28 1016.28 1016.24 1016.16 1016.12 1016.08 1016.12 1016.16 1016.20 1016.20 1016.16 1016.12 1016.08 1016.08 1016.08 1016.12 1016.16 1016.20 1016.20 1016.16 1016.12
1015.68 1015.92 1016.16 1016.36 1016.56 1016.88 1017.20 1017.40 1017.44 1017.52 1017.60 1017.68 1017.80 1017.92 1017.92 1017.92 1018.04 1018.20 1018.36 1018.40 1018.60 1018.80 1018.84 1018.92 1018.88 1018.60 1018.52 1018.32 1018.12 1017.88 1017.92 1018.12 1018.16 1018.04 1017.84 1017.76 1017.68 1017.68 1017.56 1017.32 1017.08 1016.96 1016.92 1016.92 1016.80 1016.72 1016.64 1016.52 1016.44 1016.40 1016.32 1016.24 1016.20 1016.12 1016.04 1016.00 1015.92 1015.80 1015.72 1015.64 1015.64 1015.68 1015.72 1015.80 1015.84 1015.84 1015.84 1015.84 1015.84 1015.80 1015.80 1015.80 1015.76 1015.72
1015.28 1015.56 1015.80 1016.04 1016.24 1016.52 1016.76 1016.96 1017.08 1017.16 1017.28 1017.44 1017.56 1017.56 1017.64 1017.76 1018.00 1018.20 1018.28 1018.40 1018.56 1018.68 1018.76 1018.72 1018.72 1018.76 1018.40 1018.32 1018.24 1017.68 1017.64 1017.76 1017.88 1018.08 1018.08 1018.04 1017.60 1017.56 1017.60 1017.60 1017.20 1017.00 1016.92 1016.72 1016.64 1016.56 1016.48 1016.36 1016.32 1016.24 1016.16 1016.12 1016.00 1015.92 1015.84 1015.68 1015.60 1015.48 1015.44 1015.44 1015.44 1015.44 1015.44 1015.44 1015.48 1015.52 1015.56 1015.52 1015.52 1015.48 1015.44 1015.40 1015.40 1015.36
1015.00 1015.24 1015.44 1015.68 1015.92 1016.08 1016.28 1016.44 1016.64 1016.80 1017.00 1017.16 1017.32 1017.32 1017.48 1017.68 1017.92 1018.12 1018.16 1018.32 1018.48 1018.64 1018.76 1018.76 1018.64 1018.52 1018.44 1018.20 1017.92 1017.76 1017.84 1018.00 1017.88 1017.76 1017.92 1018.12 1017.92 1017.68 1017.52 1017.44 1017.44 1017.12 1016.96 1016.92 1016.68 1016.44 1016.32 1016.20 1016.16 1016.12 1016.08 1016.00 1015.88 1015.76 1015.64 1015.44 1015.24 1015.12 1015.04 1015.04 1015.04 1015.08 1015.16 1015.16 1015.20 1015.16 1015.12 1015.08 1015.00 1015.00 1014.96 1014.92 1014.88 1014.88
1014.80 1015.00 1015.16 1015.32 1015.48 1015.60 1015.76 1015.92 1016.12 1016.24 1016.32 1016.68 1017.04 1017.12 1017.28 1017.56 1017.80 1017.96 1018.12 1018.24 1018.40 1018.56 1018.72 1018.64 1018.60 1018.64 1018.52 1018.24 1018.16 1018.12 1018.12 1018.16 1017.96 1017.52 1017.52 1017.68 1017.56 1017.48 1017.56 1017.32 1017.04 1016.96 1016.92 1016.80 1016.72 1016.60 1016.32 1016.32 1016.28 1016.24 1016.24 1016.00 1015.80 1015.64 1015.48 1015.28 1015.12 1015.00 1014.88 1014.84 1014.80 1014.80 1014.76 1014.76 1014.76 1014.72 1014.72 1014.64 1014.52 1014.48 1014.40 1014.40 1014.40 1014.40
1014.64 1014.72 1014.84 1014.88 1015.00 1015.20 1015.40 1015.64 1015.76 1015.92 1016.04 1016.16 1016.36 1016.68 1016.96 1017.24 1017.56 1017.76 1017.92 1018.08 1018.16 1018.32 1018.48 1018.48 1018.44 1018.64 1018.44 1018.04 1017.88 1017.92 1017.64 1017.48 1017.44 1017.52 1017.52 1017.68 1017.44 1017.52 1017.56 1017.40 1017.00 1016.56 1016.68 1016.80 1016.84 1016.52 1016.24 1016.32 1016.40 1016.36 1016.32 1015.92 1015.72 1015.60 1015.40 1015.20 1015.00 1014.84 1014.76 1014.68 1014.64 1014.56 1014.48 1014.44 1014.36 1014.28 1014.28 1014.24 1014.16 1014.08 1014.04 1014.00 1014.04 1014.04
1014.48 1014.52 1014.52 1014.68 1014.88 1015.08 1015.32 1015.48 1015.60 1015.76 1015.92 1016.04 1016.16 1016.28 1016.44 1016.64 1016.96 1017.40 1017.68 1017.76 1017.84 1018.04 1018.12 1018.04 1018.16 1018.16 1017.96 1017.56 1017.48 1017.52 1017.36 1017.32 1017.32 1017.28 1017.24 1017.28 1017.36 1017.56 1017.68 1017.68 1016.92 1016.28 1016.36 1016.72 1016.84 1016.64 1016.20 1016.20 1016.48 1016.36 1016.16 1015.80 1015.60 1015.40 1015.24 1014.96 1014.76 1014.64 1014.52 1014.44 1014.32 1014.24 1014.16 1014.08 1014.04 1014.04 1013.96 1013.88 1013.80 1013.72 1013.72 1013.72 1013.68 1013.68
1014.20 1014.40 1014.52 1014.68 1014.80 1015.00 1015.16 1015.32 1015.52 1015.68 1015.80 1015.92 1016.00 1016.12 1016.24 1016.44 1016.48 1016.48 1016.76 1017.12 1017.56 1017.68 1017.76 1017.76 1017.56 1017.52 1017.44 1017.28 1017.24 1017.24 1017.24 1017.20 1017.12 1017.04 1017.04 1017.12 1017.20 1017.36 1017.48 1017.44 1017.44 1016.44 1016.24 1016.68 1016.84 1016.60 1016.00 1015.92 1016.12 1016.16 1015.84 1015.52 1015.32 1015.04 1014.80 1014.64 1014.52 1014.44 1014.40 1014.28 1014.16 1014.04 1013.96 1013.88 1013.80 1013.68 1013.60 1013.52 1013.48 1013.40 1013.32 1013.28 1013.20 1013.12
1014.00 1014.24 1014.40 1014.60 1014.68 1014.76 1014.88 1015.16 1015.36 1015.56 1015.76 1015.80 1015.88 1015.96 1016.16 1016.28 1016.32 1016.36 1016.36 1016.36 1016.48 1016.68 1017.12 1017.24 1017.20 1017.08 1017.08 1017.20 1017.00 1016.80 1016.72 1016.64 1017.00 1016.88 1017.00 1016.96 1017.00 1017.04 1017.16 1017.08 1016.80 1016.28 1016.00 1016.32 1016.48 1016.44 1015.96 1015.88 1015.92 1016.00 1015.52 1015.24 1015.00 1014.76 1014.52 1014.44 1014.48 1014.40 1014.24 1014.08 1014.00 1013.88 1013.80 1013.68 1013.56 1013.44 1013.32 1013.24 1013.12 1013.00 1012.92 1012.80 1012.68 1012.60
1013.72 1013.88 1014.08 1014.40 1014.64 1014.64 1014.72 1015.00 1015.24 1015.48 1015.60 1015.72 1015.84 1016.04 1016.24 1016.36 1016.28 1016.32 1016.36 1016.52 1016.68 1016.80 1016.92 1017.04 1017.08 1016.68 1016.76 1016.88 1016.64 1016.40 1016.44 1016.72 1016.80 1016.80 1016.80 1016.68 1016.80 1016.88 1016.76 1016.40 1016.32 1015.96 1015.88 1016.24 1016.36 1016.40 1015.96 1015.60 1015.64 1015.56 1015.12 1014.92 1014.88 1014.68 1014.48 1014.36 1014.28 1014.16 1014.00 1013.88 1013.76 1013.68 1013.56 1013.44 1013.32 1013.16 1012.96 1012.80 1012.68 1012.56 1012.44 1012.32 1012.20 1012.12
1013.16 1013.40 1013.64 1013.92 1014.24 1014.56 1014.76 1014.88 1015.00 1015.24 1015.48 1015.68 1015.92 1016.16 1016.28 1016.32 1016.32 1016.40 1016.48 1016.56 1016.68 1016.76 1016.76 1016.76 1016.68 1016.48 1016.40 1016.40 1016.32 1016.24 1016.24 1016.32 1016.24 1016.24 1016.28 1016.24 1016.28 1016.28 1016.32 1016.32 1016.16 1016.04 1015.72 1015.96 1016.36 1016.52 1015.88 1015.44 1015.48 1015.32 1015.12 1014.92 1014.80 1014.64 1014.40 1014.24 1014.12 1013.96 1013.80 1013.64 1013.52 1013.40 1013.28 1013.12 1012.96 1012.76 1012.60 1012.40 1012.20 1012.04 1011.96 1011.84 1011.80 1011.72
1012.68 1013.00 1013.44 1013.84 1014.12 1014.32 1014.56 1014.76 1014.88 1015.08 1015.32 1015.72 1016.00 1016.28 1016.28 1016.32 1016.36 1016.40 1016.32 1016.36 1016.40 1016.36 1016.36 1016.36 1016.32 1016.24 1016.16 1016.08 1016.08 1016.00 1016.00 1015.96 1015.92 1015.92 1016.08 1016.20 1016.28 1016.48 1016.60 1016.56 1016.24 1016.20 1015.68 1015.80 1016.00 1016.12 1015.84 1015.44 1015.52 1015.32 1015.04 1014.92 1014.84 1014.52 1014.24 1013.96 1013.84 1013.64 1013.44 1013.32 1013.16 1013.00 1012.80 1012.60 1012.44 1012.24 1012.08 1011.88 1011.72 1011.60 1011.48 1011.40 1011.36 1011.32
1012.64 1012.88 1013.08 1013.40 1013.72 1014.16 1014.48 1014.60 1014.80 1014.96 1015.24 1015.68 1016.00 1016.20 1016.28 1016.36 1016.48 1016.36 1016.20 1016.16 1016.16 1016.12 1016.08 1016.08 1016.12 1016.12 1016.08 1016.00 1015.96 1015.92 1015.88 1015.80 1015.80 1016.04 1016.32 1016.32 1016.20 1016.44 1016.56 1016.48 1016.32 1016.04 1015.76 1015.48 1015.52 1015.72 1015.76 1015.40 1015.32 1015.20 1014.96 1014.76 1014.52 1014.24 1014.00 1013.72 1013.40 1013.20 1013.08 1012.92 1012.76 1012.56 1012.32 1012.08 1011.92 1011.76 1011.60 1011.44 1011.32 1011.20 1011.08 1010.96 1010.88 1010.76
1012.60 1012.84 1013.00 1013.20 1013.84 1014.12 1014.28 1014.36 1014.60 1014.88 1015.20 1015.60 1015.76 1016.00 1016.20 1016.40 1016.48 1016.32 1016.16 1016.08 1016.04 1016.08 1016.08 1016.08 1016.04 1015.96 1015.92 1015.96 1016.00 1015.88 1015.80 1015.76 1015.92 1016.08 1016.36 1016.08 1016.20 1016.48 1016.56 1016.60 1016.28 1016.00 1015.76 1015.44 1015.28 1015.56 1015.40 1015.20 1015.12 1014.88 1014.44 1014.28 1014.08 1013.88 1013.60 1013.32 1013.08 1012.84 1012.76 1012.52 1012.32 1012.04 1011.80 1011.60 1011.44 1011.32 1011.16 1011.00 1010.92 1010.80 1010.72 1010.60 1010.48 1010.36
1012.56 1012.84 1013.04 1013.56 1013.72 1013.68 1013.96 1014.20 1014.48 1014.80 1015.04 1015.32 1015.56 1015.84 1016.20 1016.40 1016.44 1016.16 1016.20 1016.28 1016.36 1016.32 1016.28 1016.24 1016.12 1016.04 1016.00 1015.92 1015.84 1015.72 1015.64 1015.60 1015.68 1015.84 1015.88 1016.00 1016.24 1016.40 1016.36 1016.24 1016.12 1015.96 1015.64 1015.20 1015.04 1015.32 1015.04 1015.00 1014.68 1014.60 1014.28 1014.08 1013.72 1013.40 1013.16 1013.00 1012.80 1012.56 1012.36 1012.08 1011.80 1011.52 1011.36 1011.20 1011.08 1010.92 1010.76 1010.60 1010.48 1010.40 1010.32 1010.20 1010.20 1010.08
1012.64 1012.76 1013.08 1013.32 1013.32 1013.44 1013.72 1014.00 1014.36 1014.72 1014.92 1015.16 1015.44 1015.76 1016.08 1016.32 1016.24 1016.08 1016.24 1016.28 1016.40 1016.44 1016.36 1016.24 1016.12 1016.08 1016.00 1015.96 1015.88 1015.76 1015.64 1015.60 1015.48 1015.52 1015.60 1015.72 1015.80 1015.84 1015.84 1015.80 1015.88 1015.96 1015.56 1014.96 1014.76 1015.04 1014.80 1014.68 1014.48 1014.28 1014.40 1014.52 1014.00 1013.16 1012.92 1012.68 1012.44 1012.20 1012.00 1011.80 1011.60 1011.16 1010.92 1010.80 1010.68 1010.48 1010.36 1010.20 1010.08 1009.96 1009.84 1009.76 1009.80 1009.76
1012.52 1012.80 1012.96 1013.04 1013.12 1013.32 1013.60 1013.96 1014.32 1014.64 1014.84 1015.04 1015.28 1015.52 1015.76 1015.84 1015.92 1016.12 1016.24 1016.28 1016.24 1016.32 1016.20 1016.16 1016.12 1016.08 1016.04 1015.96 1015.88 1015.72 1015.64 1015.52 1015.44 1015.36 1015.32 1015.32 1015.32 1015.44 1015.56 1015.60 1015.64 1015.56 1015.24 1014.80 1014.60 1014.84 1014.84 1014.52 1014.40 1014.20 1014.00 1014.04 1013.60 1013.40 1012.80 1012.56 1012.04 1011.84 1011.64 1011.52 1011.36 1010.92 1010.72 1010.52 1010.40 1010.16 1009.92 1009.76 1009.64 1009.52 1009.40 1009.32 1009.24 1009.24
1012.32 1012.48 1012.72 1012.88 1013.00 1013.24 1013.56 1013.96 1014.28 1014.56 1014.80 1015.00 1015.16 1015.28 1015.44 1015.76 1016.00 1016.08 1016.12 1016.16 1016.16 1016.16 1016.20 1016.20 1016.16 1016.12 1016.04 1015.92 1015.76 1015.64 1015.48 1015.32 1015.24 1015.24 1015.20 1015.16 1015.16 1015.16 1015.16 1015.24 1015.32 1015.36 1015.04 1014.48 1014.44 1014.56 1014.68 1014.48 1014.12 1014.04 1013.84 1013.76 1013.20 1013.16 1012.88 1012.48 1011.96 1011.48 1011.28 1011.12 1011.00 1010.72 1010.52 1010.32 1010.12 1009.88 1009.68 1009.44 1009.20 1009.04 1008.84 1008.68 1008.60 1008.52
1012.12 1012.28 1012.52 1012.68 1012.88 1013.16 1013.52 1013.88 1014.20 1014.48 1014.68 1014.92 1014.96 1015.12 1015.52 1015.76 1015.92 1016.00 1016.04 1016.04 1016.12 1016.12 1016.16 1016.20 1016.16 1016.08 1016.00 1015.84 1015.72 1015.60 1015.52 1015.40 1015.28 1015.16 1015.12 1015.04 1015.04 1015.00 1014.92 1014.84 1014.84 1014.76 1014.44 1014.20 1014.04 1014.12 1014.28 1014.12 1013.72 1013.80 1013.68 1013.48 1013.48 1013.08 1012.96 1012.64 1011.76 1011.20 1011.04 1010.88 1010.64 1010.40 1010.20 1010.08 1009.92 1009.60 1009.32 1009.12 1008.80 1008.52 1008.40 1008.28 1008.16 1007.96
1011.88 1012.24 1012.48 1012.64 1012.88 1013.16 1013.44 1013.76 1014.08 1014.36 1014.56 1014.60 1014.88 1015.24 1015.52 1015.72 1015.88 1016.00 1015.96 1016.00 1016.04 1016.08 1016.16 1016.16 1016.16 1016.04 1016.04 1016.12 1015.88 1015.56 1015.40 1015.32 1015.20 1015.12 1015.00 1014.96 1014.84 1014.72 1014.64 1014.56 1014.48 1014.36 1014.20 1014.00 1013.76 1013.68 1013.72 1013.80 1013.56 1013.32 1013.36 1013.44 1013.44 1013.32 1012.84 1012.04 1011.72 1011.32 1011.00 1010.40 1010.32 1010.04 1009.76 1009.68 1009.52 1009.28 1009.00 1008.76 1008.52 1008.32 1008.20 1007.92 1007.64 1007.44
1011.76 1011.96 1012.24 1012.56 1012.76 1013.04 1013.36 1013.76 1014.12 1014.44 1014.60 1014.80 1015.08 1015.32 1015.56 1015.80 1015.88 1015.84 1015.88 1015.92 1016.00 1016.00 1015.88 1015.88 1015.92 1015.96 1015.96 1015.88 1015.72 1015.48 1015.32 1015.20 1015.12 1015.00 1014.84 1014.68 1014.56 1014.52 1014.48 1014.40 1014.28 1014.08 1013.88 1013.64 1013.56 1013.48 1013.44 1013.48 1013.36 1013.12 1013.08 1013.04 1013.16 1012.76 1012.64 1012.04 1011.44 1010.96 1010.68 1010.40 1010.12 1009.72 1009.52 1009.32 1009.20 1008.96 1008.68 1008.44 1008.24 1008.00 1007.80 1007.52 1007.16 1006.92
1011.84 1012.08 1012.36 1012.60 1012.92 1013.28 1013.60 1013.92 1014.12 1014.28 1014.60 1014.92 1015.24 1015.56 1015.92 1015.92 1015.80 1015.80 1015.84 1015.88 1015.88 1015.72 1015.68 1015.76 1015.72 1015.68 1015.72 1015.60 1015.40 1015.28 1015.28 1015.20 1014.96 1014.84 1014.76 1014.68 1014.48 1014.40 1014.36 1014.32 1014.04 1013.84 1013.64 1013.48 1013.40 1013.28 1013.16 1013.08 1013.00 1012.92 1012.92 1012.68 1012.52 1012.36 1011.92 1011.64 1011.16 1010.64 1010.36 1010.28 1009.88 1009.48 1009.20 1009.04 1008.88 1008.68 1008.48 1008.12 1007.76 1007.48 1007.08 1006.92 1006.64 1006.40
1012.36 1012.56 1012.64 1012.84 1013.16 1013.44 1013.80 1014.00 1014.24 1014.44 1014.68 1015.04 1015.44 1015.68 1015.80 1015.80 1015.76 1015.80 1015.80 1015.76 1015.72 1015.68 1015.72 1015.68 1015.64 1015.60 1015.52 1015.40 1015.36 1015.20 1015.16 1015.00 1014.84 1014.80 1014.80 1014.68 1014.52 1014.36 1014.36 1014.36 1014.08 1013.80 1013.52 1013.36 1013.20 1012.96 1012.80 1012.68 1012.56 1012.56 1012.68 1012.28 1011.96 1011.68 1011.32 1011.20 1011.04 1010.60 1010.12 1009.88 1009.84 1010.00 1009.00 1008.80 1008.56 1008.40 1008.16 1007.72 1007.20 1006.76 1006.52 1006.32 1006.04 1005.76
1012.48 1012.72 1013.12 1013.28 1013.44 1013.76 1014.04 1014.28 1014.40 1014.56 1014.76 1015.00 1015.32 1015.52 1015.60 1015.56 1015.56 1015.68 1015.68 1015.72 1015.68 1015.68 1015.64 1015.60 1015.56 1015.52 1015.40 1015.32 1015.16 1015.08 1015.08 1015.00 1014.84 1014.80 1014.80 1014.68 1014.52 1014.36 1014.44 1014.24 1013.96 1013.80 1013.68 1013.36 1013.08 1012.72 1012.48 1012.40 1012.32 1012.20 1012.20 1012.04 1011.88 1011.28 1011.00 1010.88 1010.72 1010.36 1009.96 1009.56 1009.36 1009.12 1008.84 1008.68 1008.36 1008.04 1007.80 1007.44 1006.84 1006.24 1005.92 1005.88 1005.52 1004.96
1012.72 1012.96 1013.12 1013.36 1013.60 1013.72 1013.80 1014.00 1014.12 1014.40 1014.64 1014.76 1014.88 1014.96 1015.08 1015.16 1015.32 1015.48 1015.56 1015.52 1015.40 1015.40 1015.48 1015.44 1015.44 1015.36 1015.32 1015.24 1015.12 1015.12 1015.00 1014.80 1014.72 1014.72 1014.72 1014.56 1014.56 1014.36 1014.28 1014.20 1014.16 1014.04 1013.76 1013.40 1013.08 1012.76 1012.48 1012.20 1011.96 1011.96 1011.80 1011.56 1011.32 1011.16 1011.08 1010.80 1010.16 1009.80 1009.64 1009.24 1009.12 1008.96 1008.60 1008.32 1008.16 1007.88 1007.60 1007.44 1006.96 1006.16 1005.40 1004.96 1004.80 1004.36
1012.48 1012.80 1012.96 1013.16 1013.32 1013.56 1013.72 1013.84 1014.00 1014.16 1014.28 1014.44 1014.56 1014.60 1014.60 1014.72 1014.88 1015.04 1015.20 1015.24 1015.16 1015.20 1015.20 1015.24 1015.24 1015.08 1015.04 1015.08 1015.04 1014.92 1014.88 1014.80 1014.68 1014.56 1014.68 1014.56 1014.60 1014.52 1014.32 1014.28 1014.04 1013.92 1013.80 1013.52 1013.20 1012.84 1012.52 1012.16 1011.96 1011.64 1011.36 1011.04 1010.76 1010.60 1010.52 1010.52 1010.04 1009.48 1009.24 1009.16 1009.08 1008.88 1008.36 1008.08 1007.80 1007.60 1007.48 1007.40 1007.20 1006.44 1005.48 1004.60 1003.96 1003.84
1012.32 1012.76 1012.88 1013.12 1013.24 1013.28 1013.48 1013.64 1013.76 1013.88 1014.08 1014.12 1014.16 1014.16 1014.32 1014.48 1014.60 1014.72 1014.80 1014.84 1014.92 1014.96 1015.04 1015.04 1014.96 1014.96 1015.04 1014.92 1014.92 1014.92 1014.80 1014.72 1014.56 1014.48 1014.52 1014.60 1014.44 1014.32 1014.32 1014.20 1013.92 1013.68 1013.56 1013.40 1013.12 1012.72 1012.56 1012.28 1012.12 1011.96 1011.52 1011.08 1010.68 1009.92 1009.72 1009.64 1009.56 1009.32 1009.16 1009.04 1008.80 1008.60 1008.16 1007.84 1007.52 1007.16 1007.00 1006.76 1006.76 1006.36 1005.16 1004.24 1003.44 1003.04
1012.36 1012.48 1012.60 1012.88 1013.04 1013.20 1013.40 1013.44 1013.52 1013.68 1013.76 1013.80 1013.84 1013.88 1014.08 1014.12 1014.24 1014.40 1014.44 1014.44 1014.60 1014.72 1014.80 1014.80 1014.88 1014.96 1014.96 1014.92 1014.88 1014.76 1014.64 1014.64 1014.52 1014.52 1014.44 1014.32 1014.28 1014.20 1014.16 1014.04 1013.88 1013.68 1013.56 1013.40 1013.04 1012.72 1012.56 1012.32 1012.20 1012.16 1011.96 1011.60 1011.44 1010.88 1009.60 1009.00 1009.12 1009.04 1009.00 1008.72 1008.44 1008.24 1007.92 1007.64 1007.32 1007.08 1006.80 1006.40 1006.08 1005.96 1005.20 1004.04 1003.08 1002.48
1012.24 1012.36 1012.40 1012.52 1012.72 1012.96 1013.08 1013.16 1013.24 1013.32 1013.40 1013.44 1013.52 1013.64 1013.76 1013.76 1013.80 1013.96 1014.08 1014.24 1014.32 1014.44 1014.56 1014.72 1014.84 1014.92 1014.92 1014.88 1014.84 1014.68 1014.60 1014.56 1014.36 1014.40 1014.32 1014.28 1014.36 1014.28 1014.04 1013.84 1013.76 1013.60 1013.48 1013.16 1012.96 1012.76 1012.60 1012.40 1012.12 1012.08 1011.92 1011.68 1011.52 1011.16 1010.24 1009.12 1008.84 1008.80 1008.76 1008.64 1008.32 1008.08 1007.76 1007.44 1007.20 1006.88 1006.52 1006.36 1005.64 1005.32 1004.80 1003.96 1003.00 1002.28
1011.96 1012.12 1012.24 1012.36 1012.48 1012.64 1012.76 1012.80 1012.96 1013.00 1013.00 1013.04 1013.16 1013.24 1013.36 1013.52 1013.72 1013.88 1014.04 1014.08 1014.24 1014.44 1014.60 1014.76 1014.80 1014.92 1014.92 1014.88 1014.64 1014.44 1014.32 1014.36 1014.48 1014.32 1014.24 1014.28 1014.12 1013.88 1013.92 1013.96 1013.80 1013.60 1013.44 1013.20 1012.96 1012.64 1012.48 1012.36 1012.04 1011.76 1011.76 1011.68 1011.48 1011.04 1010.32 1009.24 1008.96 1008.56 1008.48 1008.52 1008.40 1007.92 1007.68 1007.52 1007.24 1006.84 1006.00 1005.60 1005.52 1004.72 1004.28 1003.64 1002.80 1002.12
1011.60 1011.84 1011.96 1012.12 1012.28 1012.28 1012.44 1012.56 1012.64 1012.64 1012.72 1012.80 1012.88 1012.92 1013.20 1013.48 1013.64 1013.80 1013.92 1014.08 1014.28 1014.44 1014.64 1014.76 1014.76 1014.76 1014.68 1014.68 1014.64 1014.48 1014.32 1014.28 1014.24 1014.20 1014.20 1014.00 1013.96 1014.00 1013.92 1013.84 1013.72 1013.48 1013.44 1013.16 1012.84 1012.52 1012.28 1012.08 1011.72 1011.48 1011.36 1011.36 1011.16 1010.60 1010.16 1009.96 1009.32 1008.56 1008.32 1008.32 1008.28 1008.08 1007.76 1007.68 1007.28 1006.64 1006.16 1005.44 1004.64 1004.28 1003.80 1003.24 1002.40 1001.80
1011.36 1011.48 1011.64 1011.80 1011.88 1012.00 1012.12 1012.28 1012.44 1012.48 1012.52 1012.56 1012.72 1013.04 1013.20 1013.44 1013.60 1013.76 1013.96 1014.16 1014.32 1014.44 1014.52 1014.56 1014.60 1014.64 1014.64 1014.60 1014.44 1014.44 1014.48 1014.32 1014.28 1014.28 1014.12 1013.96 1013.96 1013.96 1013.88 1013.76 1013.68 1013.56 1013.44 1013.16 1012.80 1012.40 1012.16 1011.76 1011.40 1011.16 1010.96 1010.76 1010.40 1009.96 1009.72 1009.52 1009.16 1008.68 1008.48 1008.20 1008.04 1008.04 1007.84 1007.64 1007.36 1006.88 1006.12 1005.52 1004.92 1004.20 1003.28 1002.56 1001.96 1001.24
1011.20 1011.32 1011.36 1011.44 1011.56 1011.76 1011.92 1012.16 1012.24 1012.32 1012.40 1012.60 1012.84 1013.12 1013.24 1013.44 1013.60 1013.72 1013.88 1014.04 1014.16 1014.28 1014.36 1014.36 1014.48 1014.48 1014.28 1014.20 1014.36 1014.32 1014.20 1014.20 1014.20 1014.00 1013.96 1013.96 1013.96 1013.88 1013.76 1013.72 1013.56 1013.40 1013.36 1013.00 1012.72 1012.36 1011.88 1011.36 1010.96 1010.60 1010.48 1010.28 1009.92 1009.64 1009.48 1009.28 1009.00 1008.60 1008.32 1007.96 1007.80 1007.68 1007.56 1007.44 1007.24 1006.92 1006.40 1005.60 1005.12 1004.52 1003.72 1002.96 1002.04 1001.00
1010.92 1011.04 1011.16 1011.32 1011.36 1011.64 1011.84 1012.04 1012.20 1012.32 1012.48 1012.60 1012.72 1012.96 1013.20 1013.36 1013.44 1013.56 1013.68 1013.80 1013.92 1014.04 1014.12 1014.16 1014.20 1014.16 1014.08 1014.20 1014.24 1014.20 1014.16 1014.04 1013.96 1013.92 1013.92 1014.00 1013.96 1013.80 1013.68 1013.64 1013.48 1013.20 1013.12 1012.84 1012.52 1012.12 1011.56 1011.16 1010.84 1010.60 1010.28 1010.04 1009.64 1009.48 1009.40 1009.32 1009.24 1008.88 1008.44 1008.00 1007.60 1007.32 1007.20 1007.00 1006.72 1006.48 1006.20 1005.76 1005.24 1004.56 1003.64 1002.72 1002.16 1001.48
1010.68 1010.84 1011.00 1011.16 1011.28 1011.56 1011.76 1011.88 1012.12 1012.16 1012.40 1012.60 1012.68 1012.84 1013.00 1013.16 1013.28 1013.44 1013.52 1013.64 1013.76 1013.84 1013.84 1013.88 1014.00 1013.96 1014.04 1014.16 1014.16 1014.20 1014.04 1013.84 1013.84 1013.88 1013.88 1013.88 1013.88 1013.80 1013.64 1013.44 1013.32 1013.12 1012.96 1012.72 1012.32 1011.96 1011.52 1011.08 1010.76 1010.48 1010.20 1010.00 1009.60 1009.48 1009.44 1009.28 1009.20 1008.96 1008.56 1008.12 1007.68 1007.24 1006.92 1006.64 1006.36 1006.00 1005.68 1005.40 1005.20 1004.96 1004.56 1003.84 1003.00 1001.72
1010.44 1010.64 1010.84 1011.04 1011.20 1011.44 1011.64 1011.76 1011.92 1012.08 1012.24 1012.40 1012.56 1012.76 1012.84 1012.96 1013.12 1013.24 1013.32 1013.40 1013.52 1013.56 1013.60 1013.68 1013.76 1013.96 1013.96 1014.04 1014.12 1013.96 1013.80 1013.80 1013.84 1013.84 1013.80 1013.76 1013.76 1013.72 1013.60 1013.36 1013.12 1012.92 1012.76 1012.52 1012.24 1011.80 1011.44 1011.04 1010.64 1010.52 1010.32 1009.84 1009.68 1009.52 1009.44 1009.28 1009.08 1008.80 1008.52 1008.20 1007.80 1007.48 1007.00 1006.40 1005.92 1005.56 1005.28 1005.08 1004.76 1004.44 1004.00 1003.60 1003.16 1002.60
1010.28 1010.44 1010.64 1010.92 1011.04 1011.24 1011.44 1011.64 1011.84 1012.04 1012.16 1012.32 1012.52 1012.56 1012.64 1012.76 1012.88 1013.00 1013.12 1013.16 1013.24 1013.44 1013.60 1013.60 1013.72 1013.76 1014.00 1013.96 1013.76 1013.64 1013.72 1013.80 1013.76 1013.76 1013.80 1013.76 1013.64 1013.52 1013.36 1013.20 1013.04 1012.88 1012.60 1012.40 1012.36 1011.92 1011.52 1011.24 1010.72 1010.40 1010.08 1009.72 1009.68 1009.64 1009.52 1009.36 1009.08 1008.80 1008.52 1008.36 1008.08 1007.64 1007.20 1006.56 1006.00 1005.40 1004.96 1004.52 1004.24 1004.00 1003.64 1003.16 1002.64 1002.00
Wind_Speed
5 5 5 6 6 6 4 4 4 5 4 5 6 6 7 6 5 3 2 3 4 2 2 1 1 1 2 4 2 3 5 7 8 6 6 6 6 9 13 15 15 15 14 14 14 14 14 14 15 13 14 14 14 14 13 13 13 13 13 12 12 11 11 11 10 10 11 11 11 12 12 13 13 12
5 5 4 5 6 5 4 6 4 5 6 6 6 6 5 6 7 5 5 5 3 2 2 2 2 1 2 2 3 3 3 6 5 3 4 5 6 10 13 14 15 15 15 15 14 14 15 15 15 15 15 15 14 14 14 14 14 12 11 12 13 12 13 13 12 11 12 12 12 13 13 13 13 13
5 6 6 5 6 5 5 5 5 5 5 6 5 5 5 5 5 6 5 2 3 3 3 4 3 1 0 2 2 3 3 6 7 5 5 6 9 12 9 13 14 15 16 16 16 15 15 15 15 16 16 16 16 16 16 16 15 15 16 14 12 12 13 14 14 13 12 12 13 13 14 14 14 14
6 6 6 6 6 4 4 5 5 5 5 5 5 5 5 4 4 5 5 5 5 3 4 3 3 3 3 2 3 3 4 5 6 4 5 6 7 6 6 9 12 13 14 15 15 15 15 15 15 15 16 16 17 17 17 16 16 16 16 16 16 16 16 15 15 14 14 13 14 13 14 14 15 15
7 7 7 6 5 4 5 6 5 5 5 4 4 4 4 4 3 4 4 4 5 4 2 2 3 3 1 2 2 3 3 4 4 4 4 4 3 5 5 6 9 11 11 13 14 15 15 15 15 15 16 16 17 17 17 17 17 17 17 17 16 16 16 16 17 17 16 15 15 14 14 15 15 16
7 6 6 6 5 3 4 4 4 5 4 5 5 4 6 6 5 4 5 5 4 6 2 2 2 3 1 3 2 3 4 5 4 4 4 3 4 5 5 5 5 10 11 12 11 12 14 15 16 16 16 16 16 16 16 17 17 18 18 18 18 17 16 16 16 17 17 17 16 13 14 15 16 16
7 6 6 7 5 3 3 4 4 3 4 5 6 5 5 5 6 5 5 4 4 5 5 3 3 3 3 5 5 4 5 4 3 4 4 5 4 4 5 5 5 9 12 12 13 14 13 12 13 15 16 16 16 16 16 17 17 17 17 18 18 18 17 17 16 17 17 17 17 15 14 14 15 16
7 8 7 6 5 4 5 5 4 3 4 5 5 5 5 5 6 5 5 5 5 5 5 3 5 4 5 5 4 4 3 4 4 4 5 3 4 7 6 5 5 7 12 14 14 14 13 13 14 14 14 13 13 13 14 15 15 16 16 17 17 17 18 18 17 17 17 17 17 17 18 18 17 15
7 8 8 5 5 5 6 5 4 3 4 4 4 5 4 5 5 4 5 6 5 5 6 4 4 4 4 3 3 3 4 4 4 4 4 6 5 5 5 5 5 8 12 13 14 14 14 15 15 15 14 14 14 14 14 15 15 16 15 15 15 17 18 18 18 18 18 17 17 17 17 18 18 17
7 7 6 6 6 6 7 6 4 4 5 4 4 4 4 4 3 4 5 5 5 5 6 5 5 3 4 3 3 3 4 5 5 4 4 4 4 4 6 6 5 4 4 4 5 6 8 10 12 13 13 13 14 14 14 14 14 15 15 16 16 16 16 15 16 16 17 17 17 17 17 17 17 17
8 7 7 6 6 7 6 6 6 6 5 5 5 6 5 4 4 5 5 5 5 6 6 5 4 4 4 4 5 4 3 4 5 5 4 4 4 3 4 6 5 4 5 5 7 7 7 9 8 10 13 14 14 14 14 14 14 14 14 14 14 15 15 16 15 15 16 17 17 18 17 16 17 15
8 7 7 7 6 7 7 7 6 6 7 5 5 4 3 3 4 5 5 5 5 5 5 6 5 4 4 3 3 2 1 2 3 3 5 6 4 4 2 4 4 3 3 5 4 5 6 7 8 8 8 9 11 12 11 12 13 13 13 13 13 13 13 14 15 16 17 17 17 17 16 17 17 17
7 7 7 7 8 8 9 10 9 8 7 6 5 3 3 3 5 4 3 4 5 4 4 6 4 4 5 6 4 4 4 5 7 4 4 4 4 3 3 5 5 5 5 3 3 4 4 4 4 4 5 6 9 9 12 11 14 14 14 13 13 13 14 15 15 15 16 16 17 16 16 16 16 16
7 8 8 8 12 13 13 12 11 10 9 8 6 5 5 5 5 5 4 5 5 5 6 6 5 5 7 7 5 5 5 4 3 2 2 4 5 2 4 4 5 4 3 2 5 5 4 3 4 5 6 7 7 7 7 7 10 12 14 15 15 15 16 16 16 16 16 16 16 16 16 15 16 16
7 7 8 7 9 10 10 9 11 10 9 8 7 8 8 8 7 6 6 6 6 6 6 6 5 7 8 8 4 5 5 4 5 5 4 5 3 4 4 6 5 2 3 2 2 6 4 3 4 5 7 7 7 7 8 12 14 15 15 15 16 16 16 16 15 13 14 15 15 16 16 15 15 16
8 8 8 7 7 7 6 5 6 8 9 9 9 9 9 10 10 10 9 8 6 5 7 7 8 7 8 5 3 5 3 6 5 5 4 5 5 5 4 3 4 4 2 2 3 7 5 2 4 5 7 7 6 8 11 14 15 15 15 16 16 16 16 15 14 14 13 14 14 15 15 15 15 16
9 8 8 8 6 6 10 7 5 5 5 7 8 8 8 9 11 11 11 11 9 5 6 7 7 6 3 5 6 4 3 2 4 4 4 3 4 4 5 5 5 7 1 2 3 5 5 3 4 6 7 7 6 8 10 12 12 13 14 15 14 14 14 14 14 13 13 13 13 14 14 15 15 15
10 11 10 9 8 6 7 7 7 5 5 5 4 4 4 5 7 8 10 9 9 6 5 5 7 5 3 6 5 5 2 3 5 4 5 4 3 4 6 5 5 6 3 4 2 4 7 5 4 5 6 5 5 6 9 12 12 13 13 12 12 12 11 12 13 14 14 14 14 14 14 15 15 16
12 11 10 10 9 7 6 6 7 6 5 4 3 3 4 5 5 3 3 4 4 5 5 6 7 8 6 6 5 5 4 5 6 6 6 5 4 3 2 3 4 6 6 2 2 4 5 4 5 6 6 5 6 6 8 11 12 13 13 12 11 12 13 14 14 15 15 14 15 15 14 15 16 17
10 10 9 8 8 8 7 7 10 8 5 3 3 3 4 4 3 3 3 4 6 6 6 6 6 6 5 5 5 5 6 6 4 2 1 2 1 2 4 6 4 4 3 2 3 2 3 3 3 3 4 5 6 7 7 9 12 13 13 13 13 15 15 16 15 16 15 15 15 15 16 16 16 17
10 10 10 9 8 7 7 9 10 9 6 3 3 3 3 4 4 6 3 4 8 11 11 11 11 11 10 9 8 7 5 4 2 1 2 5 3 2 4 4 3 5 2 2 2 2 3 2 2 5 4 5 6 7 7 7 10 14 13 14 15 15 16 16 16 16 16 16 16 16 17 17 17 20
8 8 13 10 7 8 7 9 10 8 6 4 4 3 4 5 5 6 3 2 2 3 4 3 3 3 4 4 6 8 8 8 0 2 5 4 0 3 3 5 3 5 4 3 1 1 4 3 2 5 4 4 4 6 7 7 8 10 10 12 14 16 16 16 16 16 16 17 17 17 18 18 19 14
7 7 8 10 9 9 8 11 10 9 7 5 4 4 3 5 6 6 1 1 2 2 2 2 2 1 4 3 3 4 7 8 4 3 4 2 1 3 4 3 3 5 3 2 1 4 3 4 3 2 5 4 4 5 5 6 6 6 7 8 10 14 15 16 15 16 16 17 18 18 19 19 17 11
6 6 6 10 12 12 11 10 9 8 9 5 4 3 4 5 8 1 0 1 1 1 2 3 3 4 4 3 3 3 3 3 0 1 3 3 4 2 2 3 3 4 3 3 3 4 3 3 5 2 3 5 5 3 5 6 6 7 7 7 7 11 13 13 12 15 16 16 18 18 19 18 17 10
9 7 7 6 9 11 10 10 8 8 9 7 5 5 6 5 1 3 0 2 3 2 3 3 3 4 3 3 3 3 3 1 3 2 2 2 3 2 3 5 5 6 6 7 8 2 4 2 6 3 5 3 4 5 4 7 8 7 7 7 8 9 8 8 7 9 12 16 16 18 17 17 18 14
7 8 7 6 8 11 10 8 8 9 9 9 5 6 6 4 5 2 2 2 1 2 2 3 4 4 4 4 4 3 2 2 0 0 1 1 2 3 5 5 6 4 6 7 7 4 3 3 6 5 5 5 7 6 7 7 8 10 7 6 7 8 8 9 8 9 9 9 9 10 13 16 17 18
8 6 7 7 9 10 9 9 10 10 10 7 6 7 5 5 4 4 2 1 0 2 2 3 5 5 5 4 4 4 3 3 2 3 3 3 3 3 3 4 6 7 8 7 5 4 4 4 3 5 7 6 8 7 7 7 7 6 7 7 7 7 7 7 9 9 9 9 9 14 15 15 17 19
7 7 6 7 10 11 11 11 10 9 8 6 6 5 6 6 6 3 2 1 1 1 1 3 5 5 4 4 5 4 4 3 3 4 4 4 4 3 5 5 4 5 6 7 7 6 4 5 6 6 5 6 8 9 9 8 8 8 10 8 7 8 8 7 8 9 9 9 9 9 8 10 10 11
7 7 10 11 11 11 10 9 8 6 6 5 5 7 7 7 3 4 3 3 2 2 4 4 4 5 3 4 5 5 4 4 3 3 3 3 4 4 4 4 4 4 4 5 5 5 5 4 7 7 6 5 6 7 7 10 9 9 9 9 9 8 8 8 8 9 9 8 9 9 10 10 11 11
9 10 10 11 10 9 8 6 4 4 4 5 5 5 6 4 5 4 4 2 4 5 5 4 5 5 3 5 6 4 3 3 5 3 3 4 6 5 6 6 7 6 6 5 5 5 5 5 6 6 6 8 7 8 8 9 9 10 9 9 9 9 8 7 7 7 8 10 10 11 10 10 11 12
6 7 7 6 7 7 7 5 3 2 3 2 3 4 5 5 5 4 3 4 5 4 4 4 4 5 5 4 2 3 3 4 5 3 3 4 6 5 4 3 6 7 7 6 6 6 6 6 6 5 6 7 7 8 8 7 9 10 10 8 7 9 9 8 8 8 8 10 11 11 11 10 11 13
7 7 8 9 6 5 4 1 1 1 2 3 4 5 5 5 4 3 4 5 3 4 4 4 4 4 4 3 4 3 3 4 6 3 3 3 5 6 3 4 6 6 7 7 7 8 7 6 6 6 6 7 8 9 7 7 8 9 10 9 8 8 8 9 9 9 8 10 12 13 12 11 12 13
6 6 6 5 5 4 5 4 4 3 3 4 5 4 5 5 4 3 3 5 6 5 3 5 5 6 5 6 2 2 3 4 4 4 4 5 3 5 2 4 6 6 7 8 7 8 7 8 5 5 6 7 7 8 7 8 8 8 8 9 8 9 9 8 8 9 9 9 12 14 15 14 12 13
6 5 6 6 6 6 5 5 5 5 5 5 5 6 5 4 4 4 5 5 5 4 5 5 5 5 3 3 3 3 3 5 5 4 2 4 2 3 4 6 6 6 5 6 7 8 7 7 7 8 6 6 5 6 7 7 9 9 8 8 8 9 9 8 9 9 9 8 10 14 15 15 13 11
6 5 6 6 5 5 5 5 6 5 5 6 6 6 5 5 5 5 5 6 4 4 4 3 3 2 3 4 3 3 3 3 4 5 3 2 3 4 5 6 6 6 6 7 7 7 6 7 7 7 7 7 8 6 8 10 8 8 7 6 7 8 9 8 10 10 11 11 8 12 15 14 14 10
6 6 7 6 6 5 5 6 5 5 6 5 5 5 4 5 5 6 6 4 5 4 3 3 3 3 3 4 3 3 2 1 3 3 5 5 5 5 5 5 4 6 6 6 7 7 6 7 6 6 6 7 6 8 11 5 9 6 8 9 8 8 9 9 10 10 11 11 10 11 14 16 15 14
6 6 6 6 6 6 6 6 6 6 6 6 6 5 6 6 6 5 4 5 4 3 4 3 4 4 3 3 3 2 1 0 3 4 5 5 4 3 4 5 5 6 6 7 6 7 5 5 6 5 5 7 7 8 10 8 6 6 6 8 9 8 10 10 10 11 10 9 12 11 12 14 15 15
7 6 6 6 6 6 6 6 5 5 6 5 5 4 4 3 4 5 4 5 4 3 2 4 4 3 4 3 2 2 2 2 1 3 3 4 3 5 5 6 6 7 6 7 7 7 6 6 6 6 4 5 8 8 10 8 8 5 5 5 9 10 9 10 11 12 13 10 10 12 12 14 14 13
7 7 7 7 6 6 6 5 5 5 4 5 5 5 5 5 5 5 5 5 4 3 4 4 4 3 3 2 1 1 2 3 4 3 3 3 3 4 6 6 6 7 6 7 7 7 6 7 7 6 6 6 7 9 8 8 9 9 8 9 8 8 9 9 11 12 12 14 13 12 11 11 14 20
6 6 6 6 6 6 7 6 6 6 6 5 6 6 6 6 6 6 6 5 4 4 3 4 3 2 2 3 1 1 1 1 2 5 3 3 4 4 5 5 6 6 5 6 7 7 7 8 8 7 7 8 9 9 8 7 7 6 7 9 10 8 7 8 10 12 13 12 13 14 15 13 13 10
6 6 6 6 6 6 7 6 6 6 6 6 6 6 6 7 7 6 6 6 4 4 4 4 3 3 2 2 0 0 1 2 2 2 3 3 4 4 6 5 5 5 5 7 7 7 8 8 10 16 11 7 8 4 3 5 8 8 8 7 6 8 9 9 9 10 11 13 12 13 14 14 15 14
7 7 6 5 6 6 6 7 6 6 6 6 7 7 7 6 6 7 6 4 4 4 4 4 3 2 2 1 1 1 2 2 1 3 3 4 5 6 6 4 5 6 5 7 7 8 9 9 9 8 6 6 5 4 6 6 7 8 8 8 8 8 10 12 14 13 11 10 11 13 14 13 10 10
6 6 6 5 6 6 6 7 7 7 7 6 6 6 7 7 6 6 4 5 5 3 3 3 3 3 2 2 2 3 1 1 2 3 4 4 4 5 6 6 6 6 6 6 7 7 8 9 7 7 7 5 3 2 6 7 6 7 7 8 9 9 9 11 12 14 14 14 12 10 12 13 14 15
6 6 6 6 6 6 6 7 7 6 7 7 7 6 7 7 7 6 6 5 5 5 3 3 2 2 2 3 4 2 0 1 2 2 4 4 4 4 5 6 6 6 6 6 7 8 8 8 8 6 6 6 4 4 6 6 7 6 6 7 8 9 11 10 9 9 9 9 10 15 19 21 18 20
7 7 6 6 6 6 6 6 7 6 6 6 6 7 6 7 6 6 5 5 4 2 1 2 2 2 3 3 1 1 2 1 2 2 2 3 4 4 4 5 6 6 7 6 6 8 8 8 8 6 4 5 3 3 5 5 7 6 7 8 9 10 9 10 12 13 12 11 11 17 18 21 24 24
Wind_Direction
203 215 192 194 191 202 183 174 168 165 150 159 164 162 163 167 149 174 217 260 209 286 208 172 290 262 249 236 232 208 212 218 216 218 215 215 219 229 228 231 233 235 239 242 246 251 254 256 256 253 255 256 250 248 246 245 248 251 255 253 250 247 246 245 244 244 247 247 250 255 261 268 273 274
206 212 206 207 198 208 181 184 185 164 168 166 175 177 173 156 167 175 178 246 207 224 292 205 235 306 271 240 238 217 239 260 262 255 240 231 228 229 229 232 236 240 242 244 243 244 249 253 257 259 259 255 251 254 254 253 257 253 250 248 252 249 253 253 248 236 237 237 239 244 251 257 262 267
200 216 218 212 218 194 193 180 180 181 170 181 177 180 159 174 164 168 154 174 279 177 222 271 246 235 261 220 214 238 241 249 242 242 236 237 240 240 237 234 235 238 242 246 250 250 249 249 250 254 258 260 260 259 257 257 256 256 260 261 257 254 256 258 253 245 237 234 237 241 243 248 252 257
202 209 216 212 208 203 189 193 186 186 195 181 174 172 172 185 177 152 153 175 237 228 194 228 272 223 238 231 203 241 252 266 268 255 237 236 242 254 255 252 243 238 242 248 251 255 254 249 247 248 250 253 257 261 263 262 258 256 256 257 258 261 264 265 264 255 249 239 237 238 239 243 247 252
205 207 209 213 209 184 185 194 189 181 192 179 172 168 162 179 179 149 160 180 238 293 237 224 253 296 358 307 240 284 289 291 283 274 271 265 245 243 248 253 260 253 239 234 241 247 249 251 252 249 247 248 251 255 260 264 266 265 263 260 256 252 253 255 259 262 261 258 248 232 236 244 248 252
209 202 204 212 210 183 184 187 189 192 171 171 173 175 172 183 195 195 154 201 194 242 317 302 292 278 240 246 278 247 270 277 283 286 276 269 256 259 265 266 261 260 265 265 250 236 242 252 255 255 255 256 255 253 253 254 256 259 262 264 266 263 256 250 250 252 255 259 261 244 235 237 244 251
200 202 206 208 200 185 197 210 208 188 181 181 182 189 182 186 201 199 191 164 209 234 257 238 250 247 233 206 244 245 234 246 247 265 275 271 280 266 259 266 271 277 276 271 272 274 268 249 237 239 245 249 253 256 257 257 257 257 258 259 260 263 265 262 257 252 250 251 252 253 249 246 242 245
195 205 208 212 197 192 201 208 209 196 181 182 191 195 198 193 196 200 199 198 189 212 228 269 216 230 214 248 244 241 254 260 270 247 268 279 282 278 275 262 263 268 269 271 274 276 278 281 281 277 270 260 253 253 255 256 256 256 257 258 259 260 262 263 262 260 259 254 250 250 253 255 254 248
195 205 209 198 189 187 202 206 195 189 185 187 184 202 202 199 203 196 195 210 206 203 220 250 253 230 229 238 224 205 234 271 263 270 257 261 259 273 277 287 273 270 270 270 273 274 276 278 279 278 277 279 279 275 270 267 266 263 259 252 248 249 252 255 259 262 263 262 260 255 251 253 256 256
197 200 196 189 185 185 191 196 191 186 199 194 195 208 212 208 200 202 211 209 205 209 230 231 262 285 245 283 249 214 207 240 265 271 270 280 271 270 290 282 283 288 290 296 286 283 284 285 283 283 282 282 278 275 272 266 261 260 263 266 265 261 256 253 254 257 260 263 263 262 260 257 256 257
197 191 187 186 181 183 186 184 190 191 199 199 208 210 210 207 196 210 216 202 201 209 231 250 244 256 258 231 264 264 220 238 231 248 277 281 268 234 240 280 286 276 274 265 259 261 265 273 278 285 290 292 291 287 284 282 281 278 272 265 262 264 269 272 271 266 262 260 260 261 261 259 258 256
197 188 184 186 185 187 189 190 192 185 195 192 208 217 213 216 209 217 213 203 202 216 229 240 255 246 263 266 249 294 353 288 288 229 219 250 265 269 244 227 251 263 243 274 285 285 288 290 294 302 305 300 294 291 290 289 288 287 285 282 279 273 265 258 257 259 261 261 260 259 258 257 256 255
190 186 185 186 190 189 191 190 185 192 186 178 196 212 188 204 206 217 210 200 197 216 222 254 253 268 271 262 266 268 241 232 239 231 180 231 247 247 278 273 249 244 251 244 246 270 258 278 289 299 302 289 286 290 290 290 288 283 280 279 276 273 271 271 267 263 262 263 264 262 259 257 256 255
188 186 184 189 185 187 190 186 189 194 192 187 180 183 176 181 184 189 186 190 196 195 211 232 232 247 255 258 238 239 240 232 245 232 196 223 245 256 262 272 260 222 200 261 275 268 266 263 283 287 279 282 283 282 285 274 273 278 280 279 277 275 273 272 270 269 269 268 269 269 267 262 258 255
185 182 180 177 178 178 190 189 196 191 188 183 180 178 184 183 180 182 194 213 200 203 219 230 225 235 254 258 231 233 246 231 224 233 223 231 221 229 261 286 296 289 167 177 241 273 270 251 262 265 265 270 276 270 264 266 273 277 277 276 275 275 274 273 275 275 271 267 265 265 265 263 259 255
180 172 168 166 170 186 188 175 166 172 180 184 188 192 200 206 207 198 196 211 214 209 221 232 235 234 241 258 234 248 238 245 246 243 231 219 220 242 246 240 250 243 168 233 242 274 281 251 234 259 268 268 264 266 268 275 280 283 285 284 284 285 288 291 286 275 268 265 263 262 260 257 255 252
169 169 168 168 186 186 181 167 170 169 183 199 205 214 223 229 228 230 231 224 224 218 225 235 252 240 243 250 250 235 227 207 247 248 231 227 227 226 237 245 252 276 258 329 276 276 280 276 271 259 264 268 275 287 291 294 297 293 286 284 283 282 280 280 283 282 274 266 261 258 259 261 262 261
172 173 171 176 191 189 175 165 168 171 181 191 205 223 230 238 248 246 243 250 260 259 239 236 252 262 214 247 252 259 256 242 251 232 249 242 244 229 231 234 246 271 309 266 298 298 292 279 274 272 278 286 293 285 286 292 288 285 284 281 279 279 279 276 273 273 273 272 270 269 268 267 265 264
178 178 175 184 181 170 167 171 169 170 185 189 212 230 245 244 247 251 254 237 238 243 240 241 245 257 259 259 265 272 266 241 243 236 236 223 223 252 310 322 271 279 267 220 128 243 276 297 304 295 296 300 291 282 281 274 273 275 277 275 273 274 274 275 274 274 274 274 274 273 270 267 266 263
176 168 174 177 171 168 168 178 176 180 176 183 211 239 262 282 291 274 237 232 234 237 234 232 237 244 258 269 267 269 262 255 251 242 13 9 328 333 308 280 296 275 292 166 184 236 266 259 247 265 261 263 265 268 267 271 265 260 259 264 271 275 276 276 276 277 277 278 278 277 275 273 269 268
169 173 181 174 161 160 170 181 186 197 172 175 209 238 266 274 288 280 288 237 242 249 258 268 275 276 279 287 288 286 269 232 209 122 345 290 271 289 293 286 285 276 288 269 192 199 264 249 222 265 243 240 248 255 261 260 259 262 267 272 274 274 275 276 277 278 279 280 280 280 280 280 280 280
164 174 174 156 158 168 177 179 187 194 180 191 209 224 246 269 272 273 275 284 292 294 251 230 283 303 331 290 253 251 258 267 266 183 242 252 42 287 255 270 274 293 296 267 143 347 248 254 242 269 249 242 243 242 246 254 266 271 276 274 273 273 273 274 275 276 276 277 277 278 277 278 280 283
155 163 150 166 184 169 169 174 188 186 179 191 206 213 220 255 262 264 345 313 312 340 10 354 2 311 280 275 288 300 301 293 266 197 231 271 218 247 273 284 312 325 286 254 149 319 270 301 254 259 307 293 253 245 247 263 275 277 276 277 278 274 271 273 273 273 274 274 274 274 273 274 276 277
153 159 161 185 168 161 170 184 184 179 177 184 198 174 208 236 256 261 112 261 240 348 354 320 315 295 294 305 318 309 310 317 327 170 186 191 177 192 252 262 241 247 249 262 289 273 259 243 275 247 242 283 300 291 299 286 274 275 276 280 280 281 281 279 279 275 270 270 270 269 268 268 267 271
157 167 173 177 170 174 184 188 176 166 182 191 180 186 211 224 150 100 86 279 322 333 312 315 301 296 308 316 304 285 275 206 166 163 169 166 167 178 220 248 252 249 256 264 273 253 262 256 281 289 278 219 250 295 274 289 289 281 274 269 277 282 281 281 279 281 279 274 269 265 264 262 262 258
159 168 172 178 186 182 187 178 164 170 175 188 184 208 207 133 129 183 210 230 293 327 317 304 310 308 310 297 289 272 243 220 211 91 277 256 229 220 214 218 235 252 265 261 241 214 235 277 251 272 278 290 287 282 296 286 285 287 278 264 257 268 277 284 283 280 278 275 276 265 262 261 262 262
171 165 172 180 181 184 172 165 171 169 171 167 203 199 162 162 189 220 239 245 321 306 299 302 289 287 278 282 296 311 302 288 289 291 285 275 262 257 245 229 212 229 254 271 266 243 209 243 257 263 277 279 287 293 287 288 286 287 284 275 272 271 270 271 276 278 277 275 272 270 270 269 268 267
159 160 170 175 170 164 164 168 167 167 170 194 195 164 166 186 204 219 223 193 213 254 286 288 289 288 296 316 308 287 280 269 265 276 271 264 262 285 295 286 273 251 259 264 276 279 251 252 279 275 258 267 279 283 284 277 275 278 286 286 280 280 282 277 275 276 275 273 275 276 277 280 276 278
162 164 154 148 153 160 159 152 152 163 193 191 151 173 194 202 203 209 202 202 184 236 251 249 260 274 280 267 263 261 257 263 282 274 288 300 310 293 275 274 275 278 280 281 281 281 274 258 266 280 286 265 253 264 268 275 283 286 283 293 297 291 289 284 277 274 274 270 271 273 273 276 278 274
134 138 137 139 136 128 130 133 160 185 192 190 198 198 207 218 216 207 191 194 195 223 235 242 251 254 270 281 270 273 265 278 288 308 302 317 312 315 314 330 315 303 290 286 287 283 282 271 262 265 273 275 260 263 266 276 282 282 286 284 282 289 274 269 268 271 278 279 277 278 274 270 270 276
106 119 127 124 118 109 132 119 119 142 156 152 200 212 211 220 219 210 198 199 209 233 245 255 258 254 256 276 296 264 273 299 298 284 285 301 284 297 310 317 302 304 302 308 304 295 288 282 276 264 267 272 275 266 269 268 277 283 284 281 287 285 291 289 284 280 280 281 282 279 278 276 275 272
124 120 104 101 99 108 115 93 83 184 199 191 192 210 211 221 220 213 214 228 219 234 227 250 261 276 269 265 245 269 300 283 283 307 325 294 298 299 323 331 304 302 307 309 308 301 297 285 278 274 251 256 270 281 284 277 274 277 282 283 281 280 283 288 291 291 286 291 290 286 285 284 283 282
100 100 102 99 112 136 156 175 203 217 221 224 210 209 205 213 210 203 198 217 230 229 231 247 250 259 257 249 269 287 293 289 298 316 318 291 267 299 292 283 293 307 311 311 309 304 303 300 284 263 260 269 254 259 274 289 279 274 281 288 295 291 292 288 292 293 297 293 291 295 296 291 284 280
122 130 138 158 158 163 169 184 206 220 220 227 224 225 218 209 212 209 208 219 234 233 231 244 239 240 224 249 258 271 285 299 297 289 272 285 313 301 307 312 301 297 295 293 299 297 304 304 315 319 312 297 269 246 242 253 272 283 280 290 290 290 289 298 296 298 298 291 295 296 292 292 287 279
136 146 155 168 176 174 172 193 213 222 219 227 227 233 214 216 217 216 211 218 213 228 231 218 211 214 204 234 247 251 256 261 278 304 304 297 307 307 306 308 300 301 301 303 302 300 308 309 324 326 322 322 324 299 218 222 264 268 286 281 282 288 299 304 307 308 307 301 295 288 293 290 291 292
157 165 167 171 185 179 185 216 223 218 221 227 226 233 221 224 211 202 219 203 186 184 182 202 236 240 238 240 244 237 244 252 282 298 313 320 319 314 310 291 285 292 297 294 296 299 308 307 320 323 319 317 324 316 320 220 204 269 296 305 305 305 305 307 307 306 305 304 298 295 296 300 301 302
168 176 175 180 185 183 206 216 219 223 222 229 230 218 217 228 211 199 186 151 152 160 186 198 226 232 230 232 240 245 238 265 313 320 313 304 303 292 306 312 311 307 310 300 297 298 306 304 307 309 308 315 315 311 295 307 270 235 268 292 302 305 309 311 311 307 301 299 300 300 296 298 299 300
178 174 180 188 192 196 210 220 214 228 230 221 217 209 204 183 139 145 135 125 139 160 190 213 227 212 221 220 229 295 320 322 309 309 293 291 311 322 310 303 304 306 303 298 302 298 301 292 292 289 289 288 303 300 303 304 313 294 224 273 302 308 312 313 313 312 310 308 301 303 302 296 296 300
170 175 181 189 194 199 203 194 177 183 174 155 141 135 124 125 126 121 123 134 145 168 194 203 208 220 237 251 226 214 316 329 328 300 293 303 309 303 307 309 309 304 314 306 306 305 308 303 291 288 274 281 279 276 275 289 290 294 306 298 294 302 306 314 310 309 309 312 310 303 288 280 280 285
178 171 178 179 185 172 165 167 176 164 143 142 141 140 133 134 134 131 139 158 180 203 193 210 221 226 243 236 241 29 355 270 247 255 275 302 307 303 299 301 295 295 304 301 308 307 306 296 292 285 287 273 264 262 262 264 272 285 285 292 278 263 286 313 309 309 308 307 310 311 313 316 313 311
177 180 186 168 160 164 160 163 155 142 136 134 130 137 137 141 146 161 168 179 186 188 211 225 221 219 243 277 86 296 282 276 264 288 316 320 313 309 304 309 306 301 303 301 301 303 298 289 290 298 296 279 275 290 319 316 306 310 311 300 284 280 280 289 295 302 300 308 313 313 316 321 318 317
176 186 178 165 158 167 154 151 153 143 148 145 141 144 151 155 162 171 176 185 185 195 209 221 219 223 251 248 256 163 188 231 300 317 317 316 312 312 309 308 297 299 305 299 296 288 289 295 304 309 302 309 313 319 293 291 299 304 303 305 309 307 311 307 302 295 292 308 320 322 323 317 315 307
174 182 177 183 171 159 156 154 156 154 157 153 151 154 151 157 157 164 182 192 205 204 228 247 234 233 245 254 218 194 190 339 325 319 312 307 301 298 299 295 287 284 281 282 285 289 297 304 311 318 318 324 295 271 286 295 296 294 301 311 317 321 316 310 305 303 304 310 316 322 326 325 325 323
183 184 188 173 171 162 163 158 164 161 156 161 161 155 154 157 169 186 184 190 186 208 216 233 256 216 209 217 206 207 148 325 322 319 305 297 294 286 282 292 298 299 300 299 306 309 312 316 315 323 321 312 305 309 305 310 308 306 307 306 313 323 322 324 319 312 308 307 321 332 333 332 325 316
187 187 174 172 166 162 163 165 157 158 157 157 154 160 162 160 172 185 195 190 196 175 160 206 173 170 192 199 109 37 313 303 328 307 294 295 297 298 306 304 305 306 305 303 314 312 320 318 313 323 313 307 311 301 308 310 307 311 318 321 327 328 324 329 332 331 333 331 338 338 334 337 336 331